Location: Poprad
(49.0500°N, 20.3000°E)
Time: 18:38:09
(UTC+02:00)

PCSat - Pass Details

Date: 30 April 2024
Orbit: 783 x 792 km, 67.1° (Epoch: 18 May)

Event Time Altitude Azimuth Distance (km) Brightness Sun altitude
Rises 02:10:38 0° 325° (NW) 3,300 13.2 -22.7°
Reaches altitude 10° 02:13:04 10° 327° (NNW) 2,368 12.4 -22.6°
Maximum altitude 02:18:31 74° 53° (NE) 829 9.7 -22.2°
Enters shadow 02:23:50 10° 138° (SE) 2,320 11.8 -21.8°
